Regional Weather Roundup
Issued by NWS

Home | Current Version | Previous Version | Text Only | Print | Product List | Glossary Off
Versions: 1 2 3 4 5 6 7 8 9 10 11 12 13 14 15 16 17 18 19 20 21 22 23 24 25 26 27 28 29 30 31 32 33 34 35 36 37 38 39 40 41 42 43 44 45 46 47 48 49 50

735
ASUS43 KDTX 221410
RWRMI
MICHIGAN HOURLY REGIONAL WEATHER ROUNDUP
NATIONAL WEATHER SERVICE DETROIT/PONTIAC MI
1000 AM EDT FRI MAY 22 2015

NOTE: "FAIR" INDICATES FEW OR NO CLOUDS BELOW 12,000 FEET WITH NO
SIGNIFICANT WEATHER AND/OR OBSTRUCTION TO VISIBILITY.

MIZ047>049-052>055-059>063-066>070-074>076-081>083-221500-
SOUTHEAST LOWER MICHIGAN

CITY           SKY/WX    TMP DP  RH WIND       PRES   REMARKS
ADRIAN         SUNNY     58  24  27 NE13      30.17R
ALMA           SUNNY     52  31  45 NE6       30.19R
ANN ARBOR      SUNNY     56  27  32 N10       30.16R
BAD AXE        SUNNY     49  33  54 N8        30.17R
CARO           SUNNY     51  37  60 N6        30.17R
DETROIT CITY   SUNNY     57  26  30 N12       30.15R
DETROIT        MOSUNNY   58  28  32 NW13      30.16R
FLINT          SUNNY     54  33  45 N12       30.18R
GROSSE ILE     SUNNY     57  25  28 NW12      30.14R
HILLSDALE      SUNNY     57  24  27 N6        30.17R
HOWELL         SUNNY     54  27  35 NW9       30.17R

CITY           SKY/WX    TMP DP  RH WIND       PRES   REMARKS
JACKSON        SUNNY     56  26  31 N8        30.17R
LAMBERTVILLE   MOSUNNY   59  28  31 N8        30.16R
LANSING        SUNNY     54  28  36 N7        30.19R
LAPEER         FAIR      51  36  57 NW8       30.17R
MASON          SUNNY     52  27  38 NW7       30.18R
MONROE         SUNNY     57  28  33 N6        30.14R
MT. CLEMENS    SUNNY     55  34  44 NW12      30.12R
PONTIAC        SUNNY     53  28  38 NW15      30.15R
PORT HOPE        N/A     48  36  63 N6        30.17R
PORT HURON     SUNNY     52  37  58 NW15G21   30.14R
TRI CITIES     SUNNY     52  33  48 N7        30.20R
MIDLAND        FAIR      52  29  40 CALM      30.19R
TROY           SUNNY     55  26  32 NW10G18   30.16R
SAGINAW HB     SUNNY     52  34  50 N9        30.18R
$$
MIZ043>046-050>051-056>058-064>065-071>073-077>080-221500-
SOUTHWEST LOWER MICHIGAN

CITY           SKY/WX    TMP DP  RH WIND       PRES   REMARKS
BATTLE CREEK   SUNNY     57  23  26 NE8       30.19R
BENTON HARBOR  SUNNY     57  37  47 NE7       30.18R
BIG RAPIDS     SUNNY     51  22  32 N3        30.19R
COLDWATER      SUNNY     55  29  37 NE6       30.18R
FREMONT        FAIR      53  22  29 NW3       30.20R
HOLLAND        SUNNY     58  27  30 E7        30.21R
GRAND RAPIDS   SUNNY     57  27  31 N6        30.19R
IONIA          FAIR      55  25  30 NE7       30.19R
KALAMAZOO      SUNNY     58  22  24 NE9G16    30.19R
LUDINGTON      SUNNY     56  26  32 N5        30.21R
MARSHALL       SUNNY     56  24  28 N3        30.17R
MOUNT PLEASANT SUNNY     51  31  46 N5        30.19R
MUSKEGON       SUNNY     57  23  26 VRB3      30.21R
SOUTH HAVEN    SUNNY     57  26  29 E6        30.19R
$$
MIZ016>042-221500-
NORTHERN LOWER MICHIGAN

CITY           SKY/WX    TMP DP  RH WIND       PRES   REMARKS
ALPENA         SUNNY     49  27  42 NW10      30.18R
BEAVER ISLAND  SUNNY     46  21  36 N7        30.23R
BELLAIRE       SUNNY     48  32  54 SW3       30.22R
CADILLAC       SUNNY     53  26  35 N6        30.18R
CHARLEVOIX     SUNNY     45  36  72 N8        30.25R
FRANKFORT      SUNNY     53  28  38 NW3       30.21R
GAYLORD        SUNNY     47  20  34 VRB7      30.18R
GRAYLING       SUNNY     50  25  37 NW3       30.19R
HARBOR SPRINGS SUNNY     44  33  66 SW7       30.21R
HOUGHTON LAKE  SUNNY     49  29  46 VRB6      30.19R
MANISTEE       SUNNY     50  30  46 N7        30.22R
OSCODA         SUNNY     51  29  42 NW9       30.17R
PELLSTON       SUNNY     49  23  36 NW13      30.21R
ROGERS CITY    SUNNY     44  29  56 N9        30.21R
TRAVERSE CITY  SUNNY     48  32  53 N6        30.21R
$$
MIZ007>008-015-221500-
EASTERN UPPER MICHIGAN

CITY           SKY/WX    TMP DP  RH WIND       PRES   REMARKS
KINROSS        SUNNY     43  21  42 NW9       30.20R
MACKINAC ISLAN SUNNY     43  25  49 N3        30.20R
NEWBERRY       SUNNY     42  23  46 N9G16     30.21S
S. S. MARIE    SUNNY     41  20  43 NW12      30.19R
MUNISING         N/A     43  34  70 N7        30.24R
$$
MIZ004>006-011>014-085-221500-
CENTRAL UPPER MICHIGAN

CITY           SKY/WX    TMP DP  RH WIND       PRES   REMARKS
MANISTIQUE     SUNNY     46  22  37 N8        30.23R
ESCANABA       SUNNY     46  28  49 E6        30.23R
MENOMINEE      SUNNY     52  25  35 E3        30.22R
SAWYER-GWINN   SUNNY     46  27  46 CALM      30.21R
$$
MIZ001>003-009>011-084-221500-
WESTERN UPPER MICHIGAN

CITY           SKY/WX    TMP DP  RH WIND       PRES   REMARKS
IRON MOUNTAIN  SUNNY     50  20  30 CALM      30.21R
HOUGHTON       SUNNY     45  31  58 VRB3      30.21S
COPPER HARBOR    N/A     45  25  45 SW6       30.23S
IRONWOOD       SUNNY     52  36  54 SW7       30.18R
$$

ABBREVIATIONS USED IN REMARKS
   TC - TEMPERATURE IN CELSIUS
  WCI - WIND CHILL INDEX
   HX - HEAT INDEX
  VSB - VISIBILITY




USA.gov is the U.S. government's official web portal to all federal, state and local government web resources and services.